[Iaude] MPEC G178: 2024 GS4 [a=2.42,e=0.63,i=1.9,H=25.2]
    mpec at cfa.harvard.edu 
    mpec at cfa.harvard.edu
       
    Fri Apr 12 20:20:36 EDT 2024
    
    
  
M.P.E.C. 2024-G178                               Issued 2024 April 13, 00:18 UT
     The Minor Planet Electronic Circulars contain information on unusual
         minor planets, routine data on comets and natural satellites,
         and occasional editorial announcements.  They are published
    on behalf of Division F of the International Astronomical Union by the
          Minor Planet Center, Smithsonian Astrophysical Observatory,
                          Cambridge, MA 02138, U.S.A.
			  
             Prepared using the Tamkin Foundation Computer Network
                              MPC at CFA.HARVARD.EDU
            URL https://www.minorplanetcenter.net/    ISSN 1523-6714
                                    2024 GS4                                    
Observations:
     K24G04S  C2024 04 09.31469612 40 38.716+10 58 58.36         21.25GVEG178F52
     K24G04S  C2024 04 09.32584112 40 38.437+10 59 24.65         22.96GVEG178F52
     K24G04S  C2024 04 09.34813612 40 37.784+11 00 17.28         21.80GVEG178F52
     K24G04S  C2024 04 09.55684112 40 31.745+11 08 25.34         22.25GVEG178F51
     K24G04S  C2024 04 09.55767112 40 31.734+11 08 27.10         21.50GVEG178F51
     K24G04S*1C2024 04 11.31284412 40 23.272+12 23 44.02         21.53GVEG178G96
     K24G04S 1C2024 04 11.31802212 40 23.084+12 23 58.70         22.40GVEG178G96
     K24G04S 1C2024 04 11.32319212 40 22.922+12 24 12.96         21.41GVEG178G96
     K24G04S 1C2024 04 11.32839712 40 22.804+12 24 27.43         22.29GVEG178G96
     K24G04S KC2024 04 11.35209612 40 22.120+12 25 33.24         21.90GVEG178V06
     K24G04S KC2024 04 11.35527312 40 22.019+12 25 41.77         21.55GVEG178V06
     K24G04S KC2024 04 11.35845212 40 21.940+12 25 50.77         21.59GVEG178V06
     K24G04S KC2024 04 11.36162812 40 21.850+12 25 59.77         21.82GVEG178V06
     K24G04S KC2024 04 11.41317712 40 20.572+12 28 22.37         21.58GVEG178V06
     K24G04S KC2024 04 11.41636012 40 20.514+12 28 31.30         21.37GVEG178V06
     K24G04S KC2024 04 11.41953812 40 20.431+12 28 40.04         21.87GVEG178V06
     K24G04S KC2024 04 11.42271412 40 20.363+12 28 49.26         21.71GVEG178V06
     K24G04S KB2024 04 12.03978 12 40 18.28 +12 58 40.3          21.2 RZEG178106
     K24G04S KB2024 04 12.04854 12 40 18.09 +12 59 04.8          21.8 RZEG178106
     K24G04S KB2024 04 12.05730 12 40 17.89 +12 59 31.5          21.3 RZEG178106
     K24G04S KB2024 04 12.06606 12 40 17.91 +12 59 57.3          21.4 RZEG178106
     K24G04S KC2024 04 12.16110712 40 22.616+13 05 01.61         21.95GVEG178V06
     K24G04S KC2024 04 12.16428212 40 22.544+13 05 11.54         21.83GVEG178V06
     K24G04S KC2024 04 12.16746012 40 22.501+13 05 21.52         21.77GVEG178V06
     K24G04S KC2024 04 12.17063712 40 22.408+13 05 31.38         21.45GVEG178V06
Observer details:
106 Crni Vrh.  Observer H. Mikuz.  0.60-m f/3.3 reflector + CMO.
F51 Pan-STARRS 1, Haleakala.  Observers J. Herman, T. Lowe, P. Minguez, A.
    Schultz, I. Smith.  Measurers K. Chambers, T. de Boer, J. Fairlamb, H.
    Gao, M. Huber, C.-C. Lin, E. Magnier, Y. Ramanjooloo, R. Wainscoat, R.
    Weryk.  1.8-m Ritchey-Chretien + CCD.
F52 Pan-STARRS 2, Haleakala.  Observers J. Herman, T. Lowe, P. Minguez, A.
    Schultz, I. Smith.  Measurers K. Chambers, T. de Boer, J. Fairlamb, H.
    Gao, M. Huber, C.-C. Lin, E. Magnier, Y. Ramanjooloo, R. Wainscoat, R.
    Weryk.  1.8-m Ritchey-Chretien + CCD.
G96 Mt. Lemmon Survey.  Observer H. Groeller.  Measurers T. Beuden, V. F.
    Carvajal, D. Fay, J. B. Fazekas, D. C. Fuls, A. R. Gibbs, A. D. Grauer, H.
    Groeller, J. K. Hogan, R. A. Kowalski, S. M. Larson, G. J. Leonard, D.
    Rankin, R. L. Seaman, F. C. Shelly, K. W. Wierzchos.  1.5-m reflector +
    10K CCD.
V06 Catalina Sky Survey-Kuiper.  Observers V. F. Carvajal, G. J. Leonard, D.
    Rankin.  Measurers T. Beuden, V. F. Carvajal, D. Fay, J. B. Fazekas, D. C.
    Fuls, A. R. Gibbs, A. D. Grauer, H. Groeller, J. K. Hogan, R. A. Kowalski,
    S. M. Larson, G. J. Leonard, D. Rankin, R. L. Seaman, F. C. Shelly, K. W.
    Wierzchos.  1.55-m reflector + 1K CCD.
Orbital elements:
2024 GS4                                                 Earth MOID = 0.0219 AU
Epoch 2024 Mar. 31.0 TT = JDT 2460400.5                 Bell                    
M 344.28981              (2000.0)            P               Q                  
n   0.26140895     Peri.  174.26436     -0.14547169     +0.98880891             
a   2.4224552      Node    87.36787     -0.90903400     -0.12038470             
e   0.6316333      Incl.    1.89824     -0.39050631     -0.08811615             
P   3.77           H   25.21          G   0.15           U   8                  
Residuals in seconds of arc
240409 F52  0.1-  0.0     240411 V06  0.0   0.0     240412 106  0.2-  0.9-
240409 F52  0.2+  0.0     240411 V06  0.2-  0.3-    240412 106  0.6-  0.2-
240409 F52  0.1-  0.0     240411 V06  0.1-  0.1-    240412 106  2.2+  0.4-
240409 F51  0.1-  0.2+    240411 V06  0.2-  0.0     240412 V06  0.2-  0.1-
240409 F51  0.0   0.0     240411 V06  0.2-  0.4-    240412 V06  0.2-  0.0
240411 G96  0.2+  0.0     240411 V06  0.0   0.2-    240412 V06  0.3+  0.1+
240411 G96  0.3-  0.2+    240411 V06  0.2-  0.3-    240412 V06  0.1+  0.1+
240411 G96  0.4-  0.1+    240411 V06  0.2-  0.1+
240411 G96  0.1+  0.1+    240412 106  0.1-  0.6+
Ephemeris:
2024 GS4                 a,e,i = 2.42, 0.63, 2                   q = 0.8924
Date    TT    R. A. (2000) Decl.     Delta      r    Elong.  Phase     V
2024 03 14    12 41 06.8 +02 57 28   0.3827  1.3660   163.8    11.7    24.5
...
2024 03 29    12 41 50.6 +06 03 02   0.2380  1.2336   170.2     7.9    23.1
...
2024 04 06    12 41 01.1 +09 06 52   0.1710  1.1659   163.7    13.9    22.5
...
2024 04 12    12 40 20.6 +12 57 18   0.1245  1.1173   156.0    21.4    22.0
2024 04 13    12 40 16.6 +13 50 07   0.1170  1.1094   154.5    22.9    21.9
2024 04 14    12 40 14.2 +14 49 10   0.1096  1.1016   152.9    24.5    21.8
...
2024 04 20    12 41 04.1 +24 41 38   0.06693 1.0567   139.9    37.8    21.0
...
2024 04 28    14 54 17.4 +85 38 18   0.02713 1.0025    80.2    98.3    20.9
...
2024 05 13    00 38 07.5 +12 39 09   0.1131  0.9257    39.3   136.2    26.7
M. P. C. Staff               (C) Copyright 2024 MPC           M.P.E.C. 2024-G178
    
    
More information about the Iaude
mailing list